Location: Carthage
(33.8834°N, 106.6595°W)
Time: 13:36:04
(UTC+00:00)

Cosmos 2369 - Pass Details

Date: 13 February 2026
Orbit: 840 x 853 km, 71.0° (Epoch: 11 March)

Event Time Altitude Azimuth Distance (km) Brightness Sun altitude
Rises 12:11:04 0° 194° (SSW) 3,393 6.7 -21.7°
Reaches altitude 10° 12:13:30 10° 193° (SSW) 2,459 6.0 -21.2°
Maximum altitude 12:19:08 75° 109° (ESE) 874 3.8 -20.0°
Drops below altitude 10° 12:24:46 10° 24° (NNE) 2,464 6.4 -18.9°
Sets 12:27:13 0° 23° (NNE) 3,401 7.1 -18.4°
